SB KEPS @ AMSAT $ORB10077.O Orbital Elements 10077.OSCAR
HR AMSAT ORBITAL ELEMENTS FOR OSCAR SATELLITES FROM WA5QGD FORT WORTH,TX March 18, 2010 Send Subscribe/unsubscribe to KEPS at http://www.amsat.org/mailman/listinfo/keps BID: ORB10077.O TO ALL RADIO AMATEURS BT
Satellite: AO-07 Catalog number: 07530 Epoch time: 10076.66491894 Element set: 729 Inclination: 101.4083 deg RA of node: 096.0672 deg Eccentricity: 0.0012119 Arg of perigee: 093.2192 deg Mean anomaly: 267.0266 deg Mean motion: 12.53577903 rev/day Decay rate: -2.7e-07 rev/day^2 Epoch rev: 61698 Checksum: 310
Satellite: FO-29 Catalog number: 24278 Epoch time: 10076.55189153 Element set: 268 Inclination: 098.5190 deg RA of node: 278.3256 deg Eccentricity: 0.0351159 Arg of perigee: 001.6991 deg Mean anomaly: 358.5255 deg Mean motion: 13.52947904 rev/day Decay rate: -4.4e-07 rev/day^2 Epoch rev: 67071 Checksum: 334
Satellite: SO-33 Catalog number: 25509 Epoch time: 10076.76732150 Element set: 671 Inclination: 031.4343 deg RA of node: 305.4984 deg Eccentricity: 0.0354278 Arg of perigee: 210.5710 deg Mean anomaly: 147.3818 deg Mean motion: 14.28298520 rev/day Decay rate: 2.38e-06 rev/day^2 Epoch rev: 59497 Checksum: 312
Satellite: RS-22 Catalog number: 27939 Epoch time: 10077.66436658 Element set: 35 Inclination: 097.9059 deg RA of node: 306.9250 deg Eccentricity: 0.0013396 Arg of perigee: 350.8311 deg Mean anomaly: 009.2645 deg Mean motion: 14.63393073 rev/day Decay rate: 1.78e-06 rev/day^2 Epoch rev: 34571 Checksum: 319
Satellite: VO-52 Catalog number: 28650 Epoch time: 10077.23804430 Element set: 458 Inclination: 097.7028 deg RA of node: 134.1758 deg Eccentricity: 0.0026401 Arg of perigee: 212.1128 deg Mean anomaly: 147.8504 deg Mean motion: 14.81700628 rev/day Decay rate: 1.2e-07 rev/day^2 Epoch rev: 26322 Checksum: 271
Satellite: SO-67 Catalog number: 35870 Epoch time: 10077.76161758 Element set: 550 Inclination: 097.3428 deg RA of node: 129.1473 deg Eccentricity: 0.0009562 Arg of perigee: 022.9286 deg Mean anomaly: 086.5891 deg Mean motion: 15.22397023 rev/day Decay rate: 1.060e-05 rev/day^2 Epoch rev: 2770 Checksum: 316
Satellite: HO-68 Catalog number: 36122 Epoch time: 10077.64644466 Element set: 159 Inclination: 100.4797 deg RA of node: 138.9588 deg Eccentricity: 0.0007341 Arg of perigee: 180.8113 deg Mean anomaly: 179.2993 deg Mean motion: 13.16280139 rev/day Decay rate: -4.5e-07 rev/day^2 Epoch rev: 1230 Checksum: 306
/EX SB KEPS @ AMSAT $ORB10077.D Orbital Elements 10077.MICROS
HR AMSAT ORBITAL ELEMENTS FOR THE MICROSATS FROM WA5QGD FORT WORTH,TX March 18, 2010 Send Subscribe/unsubscribe to KEPS at http://www.amsat.org/mailman/listinfo/keps BID: ORB10077.D TO ALL RADIO AMATEURS BT
Satellite: UO-11 Catalog number: 14781 Epoch time: 10077.14387661 Element set: 199 Inclination: 098.0681 deg RA of node: 128.5591 deg Eccentricity: 0.0008933 Arg of perigee: 165.9441 deg Mean anomaly: 194.2284 deg Mean motion: 14.79777886 rev/day Decay rate: -1.13e-06 rev/day^2 Epoch rev: 39834 Checksum: 346
Satellite: AO-16 Catalog number: 20439 Epoch time: 10077.41544522 Element set: 848 Inclination: 098.3218 deg RA of node: 038.9428 deg Eccentricity: 0.0011973 Arg of perigee: 077.3008 deg Mean anomaly: 282.9529 deg Mean motion: 14.31852189 rev/day Decay rate: 1.3e-07 rev/day^2 Epoch rev: 5239 Checksum: 311
Satellite: LO-19 Catalog number: 20442 Epoch time: 10077.70726457 Element set: 759 Inclination: 098.2831 deg RA of node: 045.3923 deg Eccentricity: 0.0012886 Arg of perigee: 071.3959 deg Mean anomaly: 288.8615 deg Mean motion: 14.32085470 rev/day Decay rate: 1.45e-06 rev/day^2 Epoch rev: 5260 Checksum: 317
Satellite: AO-27 Catalog number: 22825 Epoch time: 10077.77720919 Element set: 482 Inclination: 098.4768 deg RA of node: 028.1082 deg Eccentricity: 0.0008526 Arg of perigee: 169.3009 deg Mean anomaly: 190.8355 deg Mean motion: 14.29289518 rev/day Decay rate: -2.9e-07 rev/day^2 Epoch rev: 85913 Checksum: 340
Satellite: IO-26 Catalog number: 22826 Epoch time: 10077.36886729 Element set: 218 Inclination: 098.4696 deg RA of node: 028.3471 deg Eccentricity: 0.0009142 Arg of perigee: 166.2136 deg Mean anomaly: 193.9303 deg Mean motion: 14.29544629 rev/day Decay rate: 2.1e-07 rev/day^2 Epoch rev: 85918 Checksum: 330
Satellite: GO-32 Catalog number: 25397 Epoch time: 10077.05526959 Element set: 138 Inclination: 098.3150 deg RA of node: 089.5170 deg Eccentricity: 0.0001887 Arg of perigee: 138.2958 deg Mean anomaly: 221.8350 deg Mean motion: 14.23173848 rev/day Decay rate: 3.3e-07 rev/day^2 Epoch rev: 60708 Checksum: 315
Satellite: NO-44 Catalog number: 26931 Epoch time: 10077.32503170 Element set: 412 Inclination: 067.0498 deg RA of node: 078.0731 deg Eccentricity: 0.0006487 Arg of perigee: 263.8495 deg Mean anomaly: 096.1834 deg Mean motion: 14.29586365 rev/day Decay rate: -1.93e-06 rev/day^2 Epoch rev: 44176 Checksum: 320
Satellite: SO-50 Catalog number: 27607 Epoch time: 10077.55373150 Element set: 128 Inclination: 064.5570 deg RA of node: 271.8013 deg Eccentricity: 0.0036566 Arg of perigee: 119.3909 deg Mean anomaly: 241.0832 deg Mean motion: 14.71512015 rev/day Decay rate: 8.3e-07 rev/day^2 Epoch rev: 38904 Checksum: 282
Satellite: CO-55 Catalog number: 27844 Epoch time: 10077.03250260 Element set: 803 Inclination: 098.7130 deg RA of node: 087.3105 deg Eccentricity: 0.0010884 Arg of perigee: 074.1610 deg Mean anomaly: 286.0773 deg Mean motion: 14.20691690 rev/day Decay rate: 9.6e-07 rev/day^2 Epoch rev: 34814 Checksum: 288
Satellite: CO-57 Catalog number: 27848 Epoch time: 10077.68277515 Element set: 755 Inclination: 098.7168 deg RA of node: 087.0301 deg Eccentricity: 0.0010775 Arg of perigee: 076.5317 deg Mean anomaly: 283.7053 deg Mean motion: 14.20486481 rev/day Decay rate: 8.0e-07 rev/day^2 Epoch rev: 34819 Checksum: 331
Satellite: AO-51 Catalog number: 28375 Epoch time: 10077.02750028 Element set: 629 Inclination: 098.0588 deg RA of node: 075.7304 deg Eccentricity: 0.0085026 Arg of perigee: 014.4166 deg Mean anomaly: 345.9423 deg Mean motion: 14.40674042 rev/day Decay rate: 3.6e-07 rev/day^2 Epoch rev: 30038 Checksum: 290
Satellite: GENESAT1 Catalog number: 29655 Epoch time: 10076.92198845 Element set: 979 Inclination: 040.0170 deg RA of node: 257.5008 deg Eccentricity: 0.0006577 Arg of perigee: 003.7677 deg Mean anomaly: 356.3187 deg Mean motion: 15.77598863 rev/day Decay rate: 6.6323e-04 rev/day^2 Epoch rev: 18550 Checksum: 345
Satellite: CP3 Catalog number: 31129 Epoch time: 10077.33717327 Element set: 531 Inclination: 097.9526 deg RA of node: 121.7271 deg Eccentricity: 0.0103570 Arg of perigee: 155.0820 deg Mean anomaly: 205.5423 deg Mean motion: 14.52224246 rev/day Decay rate: 2.32e-06 rev/day^2 Epoch rev: 15467 Checksum: 264
Satellite: CO-65 Catalog number: 32785 Epoch time: 10076.92615667 Element set: 630 Inclination: 097.9052 deg RA of node: 143.0779 deg Eccentricity: 0.0014095 Arg of perigee: 218.5838 deg Mean anomaly: 141.4359 deg Mean motion: 14.81603390 rev/day Decay rate: -8.0e-08 rev/day^2 Epoch rev: 10197 Checksum: 319
Satellite: KKS-1 Catalog number: 33493 Epoch time: 10077.71760893 Element set: 307 Inclination: 098.0735 deg RA of node: 196.5009 deg Eccentricity: 0.0021293 Arg of perigee: 074.9887 deg Mean anomaly: 285.3688 deg Mean motion: 14.80898514 rev/day Decay rate: 7.59e-06 rev/day^2 Epoch rev: 6209 Checksum: 347
Satellite: SOHLA-1 Catalog number: 33496 Epoch time: 10077.66693381 Element set: 53 Inclination: 098.0484 deg RA of node: 187.9602 deg Eccentricity: 0.0007492 Arg of perigee: 125.3377 deg Mean anomaly: 234.8535 deg Mean motion: 14.69476202 rev/day Decay rate: -4.1e-07 rev/day^2 Epoch rev: 6158 Checksum: 315
/EX SB KEPS @ AMSAT $ORB10077.W Orbital Elements 10077.WEATHER
HR AMSAT ORBITAL ELEMENTS FOR WEATHER SATELLITES FROM WA5QGD FORT WORTH,TX March 18, 2010 Send Subscribe/unsubscribe to KEPS at http://www.amsat.org/mailman/listinfo/keps BID: ORB10077.W TO ALL RADIO AMATEURS BT
Satellite: NOAA-10 Catalog number: 16969 Epoch time: 10077.23778060 Element set: 994 Inclination: 098.6663 deg RA of node: 107.0222 deg Eccentricity: 0.0013162 Arg of perigee: 115.4197 deg Mean anomaly: 244.8350 deg Mean motion: 14.27410004 rev/day Decay rate: 7.7e-07 rev/day^2 Epoch rev: 22260 Checksum: 281
Satellite: NOAA-11 Catalog number: 19531 Epoch time: 10077.30111634 Element set: 10 Inclination: 098.7684 deg RA of node: 167.8741 deg Eccentricity: 0.0012278 Arg of perigee: 049.1697 deg Mean anomaly: 311.0561 deg Mean motion: 14.14918491 rev/day Decay rate: 1.80e-06 rev/day^2 Epoch rev: 10828 Checksum: 285
Satellite: NOAA-12 Catalog number: 21263 Epoch time: 10077.32235288 Element set: 495 Inclination: 098.7694 deg RA of node: 090.4805 deg Eccentricity: 0.0013337 Arg of perigee: 071.7885 deg Mean anomaly: 288.4745 deg Mean motion: 14.25622273 rev/day Decay rate: 6.1e-07 rev/day^2 Epoch rev: 97945 Checksum: 329
Satellite: MET-3/5 Catalog number: 21655 Epoch time: 10077.62527986 Element set: 763 Inclination: 082.5617 deg RA of node: 012.6145 deg Eccentricity: 0.0012569 Arg of perigee: 211.4713 deg Mean anomaly: 148.5689 deg Mean motion: 13.17023280 rev/day Decay rate: 5.1e-07 rev/day^2 Epoch rev: 89375 Checksum: 310
Satellite: MET-2/21 Catalog number: 22782 Epoch time: 10077.68253293 Element set: 724 Inclination: 082.5507 deg RA of node: 324.2564 deg Eccentricity: 0.0021057 Arg of perigee: 298.9282 deg Mean anomaly: 060.9767 deg Mean motion: 13.83643485 rev/day Decay rate: -3.0e-08 rev/day^2 Epoch rev: 83556 Checksum: 323
Satellite: OKEAN-4 Catalog number: 23317 Epoch time: 10077.76175713 Element set: 181 Inclination: 082.5363 deg RA of node: 078.2575 deg Eccentricity: 0.0022000 Arg of perigee: 175.2871 deg Mean anomaly: 184.8582 deg Mean motion: 14.82781671 rev/day Decay rate: 2.38e-06 rev/day^2 Epoch rev: 83305 Checksum: 301
